Regional Weather Roundup
Issued by NWS New Orleans/Baton Rouge, LA

Home | Current Version | Previous Version | Text Only | Print | Product List | Glossary On
Versions: 1 2 3 4 5 6 7 8 9 10 11 12 13 14 15 16 17 18 19 20 21 22 23 24 25 26 27 28 29 30 31 32 33 34 35 36 37 38 39 40 41 42 43 44 45 46 47 48 49 50
000
ASUS44 KLIX 291011
RWRLIX
NEW ORLEANS REGIONAL WEATHER ROUNDUP
NATIONAL WEATHER SERVICE NEW ORLEANS LA
500 AM CDT SUN MAR 29 2015

NOTE: "FAIR" INDICATES FEW OR NO CLOUDS BELOW 12,000 FEET WITH NO
      SIGNIFICANT WEATHER AND/OR OBSTRUCTIONS TO VISIBILITY.
      SKY/WX - SKY CONDITION AND SIGNIFICANT WEATHER.
      TMP - AIR TEMPERATURE.     DP    - DEWPOINT TEMPERATURE.
      RH  - RELATIVE HUMIDITY.   PRES  - PRESSURE.
      HI  - HEAT INDEX.          WCI   - WIND CHILL INDEX.

*  THESE STATIONS ARE NOT NWS OR FAA STATIONS AND ARE NOT UNDER
   NWS QUALITY CONTROL.

LAZ038-040-048-061>063-065>067-069-291100-
SOUTHEAST LOUISIANA

CITY           SKY/WX    TMP DP  RH WIND       PRES   REMARKS
N.O. AUDUBON   NOT AVBL
N.O. INTL ARPT MOCLDY    59  52  77 E7        30.22R
N.O. LAKEFRONT PTCLDY    58  52  80 E12       30.23S
SLIDELL        PTCLDY    47  38  71 NE6       30.25R
BATON ROUGE    CLEAR     51  49  92 E7        30.21S
BOOTHVILLE     CLEAR     57  53  86 E5        30.23R
BELLE CHASSE   MOCLDY    53  51  93 E6        30.22R
BOGALUSA*        N/A     46  34  62 CALM      30.28R
GALLIANO*      MOSUNNY   60  58  94 CALM      30.22R
NEW ROADS*       N/A     54  51  91 E5        30.20S
GONZALES*        N/A     53  53 100 CALM      30.21R FOG
HAMMOND*       MOCLDY    48  39  71 E3        30.26R
HOUMA*         NOT AVBL
PORT FOURCHON* SUNNY     66  63  88 E7        30.24R

$$

MSZ070-080>082-291100-
SOUTHERN MISSISSIPPI

CITY           SKY/WX    TMP DP  RH WIND       PRES   REMARKS
MCCOMB         MOCLDY    45  33  63 E6        30.24S
GULFPORT       CLEAR     47  34  60 E6        30.26R
BILOXI         CLEAR     47  34  62 NE9       30.26R
PASCAGOULA     CLEAR     44  35  70 NE6       30.28R

$$

COASTAL OBSERVATIONS
LAKE AND NEARSHORE STATIONS

STATION/POSITION TIME  TEMP    WIND        PRES    WAVE
                       AIR SEA DIR/SP/G            HT/PER
                 (UTC) (F)     (DEG/KT/KT) (MB)    (FT/S)

OFFSHORE STATIONS

STATION/POSITION TIME  TEMP    WIND        PRES    WAVE
                       AIR SEA DIR/SP/G            HT/PER
                 (UTC) (F)     (DEG/KT/KT) (MB)    (FT/S)
64 S DAUPHIN ISL 0950   63 71  100/ 10/ 12 1024.4    1/ 4

$$



USA.gov is the U.S. government's official web portal to all federal, state and local government web resources and services.